Regional Weather Roundup
Issued by NWS

Home | Current Version | Previous Version | Graphics & Text | Print | Product List | Glossary On
Versions: 1 2 3 4 5 6 7 8 9 10 11 12 13 14 15 16 17 18 19 20 21 22 23 24 25 26 27 28 29 30 31 32 33 34 35 36 37 38 39 40 41 42 43 44 45 46 47 48 49 50
000
ASUS43 KLMK 012102
RWRKY
KENTUCKY REGIONAL WEATHER ROUNDUP
NATIONAL WEATHER SERVICE LOUISVILLE KY
500 PM EDT SAT AUG 01 2015

NOTE "FAIR" INDICATES FEW OR NO CLOUDS BELOW 12,000 FEET
WITH NO SIGNIFICANT WEATHER AND/OR OBSTRUCTIONS TO VISIBILITY.

KYZ001>023-026-027-061>063-070>075-012200-
WESTERN AND SOUTH CENTRAL KENTUCKY

CITY           SKY/WX    TMP DP  RH WIND       PRES   REMARKS
PADUCAH        SUNNY     90  69  50 N6        29.98F HX  94
HENDERSON      PTSUNNY   86  63  45 W5        29.98F
OWENSBORO      MOSUNNY   86  60  41 N8        29.99F
HOPKINSVILLE   SUNNY     88  68  52 NW6       29.98F HX  91
BOWLING GREEN  MOSUNNY   90  62  39 NW8       29.99S HX  90
GLASGOW        NOT AVBL
$$

KYZ024-025-028>034-038-045-046-053-012200-
NORTH CENTRAL KENTUCKY

CITY           SKY/WX    TMP DP  RH WIND       PRES   REMARKS
LOUISVILLE/SDF PTSUNNY   87  55  33 N10       29.97F
LOUISVILLE/LOU SUNNY     87  53  31 NW8       29.99F
FORT KNOX      NOT AVBL
$$

KYZ035>037-039>044-047>052-055>060-089>105-012200-
NORTHEAST KENTUCKY

CITY           SKY/WX    TMP DP  RH WIND       PRES   REMARKS
LEXINGTON      SUNNY     85  57  38 NW9       29.99F
COVINGTON      PTSUNNY   83  56  39 NW9       29.99S
FRANKFORT      MOSUNNY   83  55  38 NW8       29.98F
$$

KYZ054-064>069-076>088-106>120-012200-
SOUTHEAST KENTUCKY

CITY           SKY/WX    TMP DP  RH WIND       PRES   REMARKS
JACKSON        MOSUNNY   84  59  42 VRB3      29.99F
LONDON         MOSUNNY   87  58  37 NW8       29.99F
SOMERSET       NOT AVBL
MIDDLESBORO    MOSUNNY   87  61  40 NW9       29.99F
MONTICELLO     CLEAR     86  64  47 CALM      30.02F
$$




USA.gov is the U.S. government's official web portal to all federal, state and local government web resources and services.